| time (UTC) | temp F | wind direction | speed knots | gust knots | rain 1hr in | rain 24hr in | rain mn in | humidity % | barometer mb |
| 20260901124547 | 92 | 264 | 0.9 | 7.0 | 0.00 | 0.00 | 0.00 | 36 | 1015.1 |
| 20260901123044 | 90 | 232 | 3.5 | 7.8 | 0.00 | 0.00 | 0.00 | 37 | 1015.2 |
| 20260901121607 | 90 | 335 | 0.9 | 7.0 | 0.00 | 0.00 | 0.00 | 37 | 1015.3 |
| 20260901120021 | 90 | 134 | 0.9 | 6.1 | 0.00 | 0.00 | 0.00 | 36 | 1015.4 |
| 20260901114507 | 89 | 179 | 0.9 | 7.8 | 0.00 | 0.00 | 0.00 | 38 | 1015.6 |
| 20260901113004 | 88 | 248 | 2.6 | 7.0 | 0.00 | 0.00 | 0.00 | 38 | 1015.8 |
| 20260901111502 | 86 | 254 | 2.6 | 7.0 | 0.00 | 0.00 | 0.00 | 40 | 1015.8 |
| 20260901110005 | 87 | 226 | 2.6 | 7.0 | 0.00 | 0.00 | 0.00 | 38 | 1015.9 |
| 20260901104504 | 88 | 154 | 1.7 | 5.2 | 0.00 | 0.00 | 0.00 | 38 | 1016.1 |
| 20260901103055 | 86 | 243 | 0.9 | 3.5 | 0.00 | 0.00 | 0.00 | 39 | 1016.1 |
| 20260901101603 | 84 | 64 | 0.0 | 2.6 | 0.00 | 0.00 | 0.00 | 41 | 1016.0 |
| 20260901100052 | 84 | 120 | 0.9 | 5.2 | 0.00 | 0.00 | 0.00 | 40 | 1016.1 |
| 20260901094548 | 83 | 22 | 0.0 | 2.6 | 0.00 | 0.00 | 0.00 | 40 | 1016.0 |
| 20260901093048 | 83 | 117 | 0.0 | 2.6 | 0.00 | 0.00 | 0.00 | 41 | 1016.0 |
| 20260901091553 | 81 | 217 | 0.0 | 3.5 | 0.00 | 0.00 | 0.00 | 45 | 1016.0 |
| 20260901090037 | 79 | 99 | 2.6 | 5.2 | 0.00 | 0.00 | 0.00 | 46 | 1015.9 |
| 20260901084540 | 79 | 96 | 0.9 | 2.6 | 0.00 | 0.00 | 0.00 | 49 | 1016.0 |
| 20260901083035 | 78 | 117 | 0.0 | 2.6 | 0.00 | 0.00 | 0.00 | 50 | 1015.8 |
| 20260901081516 | 77 | 82 | 0.9 | 3.5 | 0.00 | 0.00 | 0.00 | 51 | 1015.8 |
| 20260901080135 | 76 | 68 | 2.6 | 6.1 | 0.00 | 0.00 | 0.00 | 52 | 1015.8 |
| 20260901074537 | 74 | 94 | 0.9 | 3.5 | 0.00 | 0.00 | 0.00 | 53 | 1015.6 |
| 20260901073048 | 73 | 114 | 1.7 | 4.3 | 0.00 | 0.00 | 0.00 | 52 | 1015.6 |
| 20260901071542 | 72 | 68 | 0.0 | 2.6 | 0.00 | 0.00 | 0.00 | 51 | 1015.5 |
| 20260901070048 | 72 | 56 | 0.9 | 1.7 | 0.00 | 0.00 | 0.00 | 51 | 1015.3 |
| 20260901064559 | 71 | 120 | 0.0 | 0.9 | 0.00 | 0.00 | 0.00 | 52 | 1015.2 |
| 20260901063103 | 69 | 131 | 0.0 | 0.9 | 0.00 | 0.00 | 0.00 | 55 | 1015.0 |
| 20260901061606 | 68 | 139 | 0.0 | 2.6 | 0.00 | 0.00 | 0.00 | 56 | 1015.0 |
| 20260901060050 | 68 | 188 | 0.0 | 4.3 | 0.00 | 0.00 | 0.00 | 55 | 1014.9 |
| 20260901054520 | 67 | 321 | 0.0 | 0.0 | 0.00 | 0.00 | 0.00 | 56 | 1014.6 |
| 20260901053036 | 67 | 321 | 0.0 | 3.5 | 0.00 | 0.00 | 0.00 | 56 | 1014.4 |
| 20260901051509 | 69 | 323 | 1.7 | 4.3 | 0.00 | 0.00 | 0.00 | 53 | 1014.4 |
| 20260901050008 | 68 | 326 | 0.9 | 3.5 | 0.00 | 0.00 | 0.00 | 55 | 1014.3 |
| 20260901044509 | 70 | 322 | 1.7 | 3.5 | 0.00 | 0.00 | 0.00 | 54 | 1014.3 |
| 20260901043011 | 71 | 355 | 0.9 | 2.6 | 0.00 | 0.00 | 0.00 | 53 | 1014.3 |
| 20260901041506 | 70 | 330 | 0.0 | 1.7 | 0.00 | 0.00 | 0.00 | 56 | 1014.6 |
| 20260901040009 | 69 | 330 | 0.0 | 0.9 | 0.00 | 0.00 | 0.00 | 57 | 1014.7 |
| 20260901034505 | 70 | 330 | 0.0 | 1.7 | 0.00 | 0.00 | 0.00 | 57 | 1014.8 |
| 20260901033013 | 69 | 329 | 0.0 | 1.7 | 0.00 | 0.00 | 0.00 | 60 | 1014.8 |
| 20260901031516 | 68 | 318 | 0.9 | 3.5 | 0.00 | 0.00 | 0.00 | 62 | 1014.7 |
| 20260901030046 | 69 | 331 | 0.9 | 3.5 | 0.00 | 0.00 | 0.00 | 64 | 1014.7 |
| 20260901024549 | 69 | 22 | 0.0 | 0.9 | 0.00 | 0.00 | 0.00 | 66 | 1014.8 |
| 20260901023001 | 69 | 85 | 0.0 | 2.6 | 0.00 | 0.00 | 0.00 | 68 | 1014.9 |
| 20260901021526 | 69 | 113 | 1.7 | 3.5 | 0.00 | 0.00 | 0.00 | 62 | 1015.0 |
| 20260901020039 | 70 | 60 | 0.9 | 1.7 | 0.00 | 0.00 | 0.00 | 62 | 1015.1 |
| 20260901014541 | 70 | 213 | 0.0 | 0.9 | 0.00 | 0.00 | 0.00 | 62 | 1015.2 |
| 20260901013119 | 69 | 141 | 0.0 | 3.5 | 0.00 | 0.00 | 0.00 | 65 | 1015.2 |
| 20260901011600 | 70 | 147 | 0.9 | 2.6 | 0.00 | 0.00 | 0.00 | 63 | 1015.3 |
| 20260901010004 | 70 | 157 | 0.9 | 3.5 | 0.00 | 0.00 | 0.00 | 59 | 1015.2 |
| 20260901004508 | 70 | 140 | 1.7 | 3.5 | 0.00 | 0.00 | 0.00 | 57 | 1015.2 |
| 20260901003031 | 70 | 143 | 1.7 | 4.3 | 0.00 | 0.00 | 0.00 | 54 | 1015.2 |
| 20260901001606 | 71 | 165 | 1.7 | 5.2 | 0.00 | 0.00 | 0.00 | 51 | 1015.2 |
| 20260901000003 | 72 | 136 | 1.7 | 4.3 | 0.00 | 0.00 | 0.00 | 47 | 1015.2 |
| 20260831234520 | 73 | 148 | 1.7 | 4.3 | 0.00 | 0.00 | 0.00 | 45 | 1015.1 |
| 20260831233056 | 75 | 133 | 0.9 | 3.5 | 0.00 | 0.00 | 0.00 | 42 | 1014.9 |
| 20260831231604 | 77 | 174 | 1.7 | 3.5 | 0.00 | 0.00 | 0.00 | 41 | 1014.9 |
| 20260831230048 | 77 | 315 | 0.0 | 3.5 | 0.00 | 0.00 | 0.00 | 40 | 1014.7 |
| 20260831224619 | 77 | 318 | 1.7 | 3.5 | 0.00 | 0.00 | 0.00 | 41 | 1014.7 |
| 20260831223036 | 77 | 311 | 0.9 | 2.6 | 0.00 | 0.00 | 0.00 | 40 | 1014.7 |
| 20260831221600 | 78 | 314 | 0.9 | 3.5 | 0.00 | 0.00 | 0.00 | 40 | 1014.9 |
| 20260831220047 | 78 | 307 | 0.9 | 5.2 | 0.00 | 0.00 | 0.00 | 40 | 1015.0 |
| 20260831214544 | 78 | 315 | 2.6 | 6.1 | 0.00 | 0.00 | 0.00 | 39 | 1015.1 |
| 20260831213038 | 78 | 303 | 2.6 | 7.0 | 0.00 | 0.00 | 0.00 | 38 | 1015.2 |
| 20260831211551 | 79 | 308 | 2.6 | 5.2 | 0.00 | 0.00 | 0.00 | 37 | 1015.2 |
| 20260831210036 | 79 | 321 | 2.6 | 5.2 | 0.00 | 0.00 | 0.00 | 37 | 1015.1 |
| 20260831204550 | 80 | 311 | 2.6 | 5.2 | 0.00 | 0.00 | 0.00 | 39 | 1015.0 |
| 20260831203101 | 81 | 312 | 1.7 | 6.1 | 0.00 | 0.00 | 0.00 | 38 | 1014.8 |
| 20260831201601 | 82 | 330 | 1.7 | 3.5 | 0.00 | 0.00 | 0.00 | 36 | 1014.6 |
| 20260831200056 | 83 | 300 | 0.9 | 5.2 | 0.00 | 0.00 | 0.00 | 35 | 1014.4 |
| 20260831194611 | 85 | 321 | 0.9 | 6.1 | 0.00 | 0.00 | 0.00 | 35 | 1014.1 |
| 20260831193100 | 85 | 297 | 1.7 | 5.2 | 0.00 | 0.00 | 0.00 | 33 | 1013.9 |
| 20260831191600 | 87 | 298 | 3.5 | 7.0 | 0.00 | 0.00 | 0.00 | 31 | 1013.7 |
| 20260831190132 | 88 | 265 | 2.6 | 7.0 | 0.00 | 0.00 | 0.00 | 30 | 1013.6 |
| 20260831184534 | 89 | 246 | 4.3 | 9.6 | 0.00 | 0.00 | 0.00 | 29 | 1013.4 |
| 20260831183033 | 91 | 259 | 7.0 | 10.4 | 0.00 | 0.00 | 0.00 | 28 | 1013.3 |
| 20260831181516 | 92 | 243 | 3.5 | 8.7 | 0.00 | 0.00 | 0.00 | 28 | 1013.2 |
| 20260831180006 | 93 | 256 | 3.5 | 9.6 | 0.00 | 0.00 | 0.00 | 28 | 1013.3 |
| 20260831174508 | 94 | 267 | 6.1 | 10.4 | 0.00 | 0.00 | 0.00 | 28 | 1013.2 |
| 20260831173008 | 94 | 310 | 5.2 | 8.7 | 0.00 | 0.00 | 0.00 | 28 | 1013.1 |
| 20260831171542 | 95 | 202 | 2.6 | 10.4 | 0.00 | 0.00 | 0.00 | 29 | 1013.1 |
| 20260831170049 | 96 | 282 | 3.5 | 7.8 | 0.00 | 0.00 | 0.00 | 29 | 1013.1 |
| 20260831164614 | 96 | 252 | 2.6 | 8.7 | 0.00 | 0.00 | 0.00 | 29 | 1013.0 |
| 20260831163046 | 96 | 110 | 7.0 | 12.2 | 0.00 | 0.00 | 0.00 | 29 | 1013.0 |
| 20260831161544 | 97 | 157 | 4.3 | 11.3 | 0.00 | 0.00 | 0.00 | 29 | 1013.1 |
| 20260831160042 | 97 | 212 | 6.1 | 11.3 | 0.00 | 0.00 | 0.00 | 30 | 1013.3 |
| 20260831154518 | 97 | 209 | 6.1 | 11.3 | 0.00 | 0.00 | 0.00 | 30 | 1013.3 |
| 20260831153006 | 97 | 193 | 4.3 | 7.8 | 0.00 | 0.00 | 0.00 | 30 | 1013.5 |
| 20260831151511 | 97 | 152 | 1.7 | 10.4 | 0.00 | 0.00 | 0.00 | 30 | 1013.5 |
| 20260831150011 | 96 | 191 | 0.0 | 4.3 | 0.00 | 0.00 | 0.00 | 31 | 1013.6 |
| 20260831144514 | 96 | 249 | 0.9 | 2.6 | 0.00 | 0.00 | 0.00 | 31 | 1013.7 |
| 20260831143010 | 96 | 279 | 0.9 | 8.7 | 0.00 | 0.00 | 0.00 | 30 | 1013.9 |
| 20260831141502 | 95 | 259 | 0.0 | 4.3 | 0.00 | 0.00 | 0.00 | 32 | 1014.1 |
| 20260831140002 | 95 | 249 | 1.7 | 7.8 | 0.00 | 0.00 | 0.00 | 32 | 1014.2 |
| 20260831134502 | 95 | 222 | 0.9 | 6.1 | 0.00 | 0.00 | 0.00 | 31 | 1014.3 |
| 20260831133102 | 95 | 266 | 0.0 | 7.0 | 0.00 | 0.00 | 0.00 | 33 | 1014.4 |
| 20260831131547 | 94 | 238 | 2.6 | 6.1 | 0.00 | 0.00 | 0.00 | 33 | 1014.5 |
| 20260831130105 | 94 | 268 | 3.5 | 7.8 | 0.00 | 0.00 | 0.00 | 32 | 1014.6 |